Погода в Девятинах

Россия / Вологодская область     60°55′05″N   36°46′55″E
темп.,
°C
ветер,
м/с
пор.,
м/с
влажн.,
%
обл.,
%
осадки,
мм/ч
давл.,
гПа
погр.,
м
11 мая, вт
вт1100:00+9ю31169100 0.0 1025299
03:00+7ю3107999 0.0 1026220
06:00+9ю31078100 0.0 1026243
09:00+15ююз476099 0.0 1026503
12:00+19ююз57485 0.0 10261239
15:00+21ююз464216 0.0 10261585
18:00+20ю36499 0.0 1025928
21:00+14ююв39789 0.0 1026177
12 мая, ср
ср1200:00+11ю3118313 0.0 1027221
03:00+9ю28840 0.0 1028140
06:00+11ю27785 0.0 1028183
09:00+17ю34535 0.0 1027532
12:00+20ююв34380 0.0 10271065
15:00+22ююв34380 0.0 10251377
18:00+21юв34480 0.0 1024513
21:00+15юв25760 0.0 102478
13 мая, чт
чт1300:00+13юв26815 0.0 102499
03:00+12юв25855 0.0 102373
06:00+13юв39802 0.0 1022245
09:00+19ююв47645 0.0 1022712
12:00+21ююв465672 0.0 10211562
15:00+22ююв455347 0.1 10191601
18:00+20ююв36605 0.0 10181284
21:00+15вюв28865 0.0 1016184
14 мая, пт
пт1400:00+13юв2109287 0.0 1015257
03:00+13юв3996100 0.6 1015414
06:00+13ю379021 0.1 1015516
09:00+16ююз47695 0.1 1016843
12:00+19ю464895 0.0 10161951
15:00+21ю463887 0.0 10152299
18:00+19ююв4757100 0.0 1015750
21:00+14юв278111 0.0 1015178
15 мая, сб
сб1500:00+12юв269134 0.0 1014113
03:00+11юв2692100 0.0 1014140
06:00+13вюв3995100 0.6 1012254
09:00+15юв4109192 1.4 1010505
12:00+18юв5876100 0.1 1009831
15:00+21ююв3563100 0.1 10071089
18:00+18ююв368094 2.4 1005352
21:00+16юв2290100 4.6 100343